• In Austria
  • List of Countries
  • For 7 days
  • Water Temperature
  • Satellite Maps
  • Weather Map
  • News
  • Weather Widgets
  • user-avatar
    Login

    Hourly Weather Taşköprü

    Today, 19 November, Sunday

    Time Temperature Precipitation Wind Pressure Humidity
    00:00 +10°C° 0 mm 2 mps 701 mmHg 50%
    01:00 +10°C° 0 mm 2 mps 700 mmHg 50%
    02:00 +10°C° 0 mm 3 mps 700 mmHg 47%
    03:00 +10°C° 0 mm 3 mps 700 mmHg 47%
    04:00 +9°C° 0 mm 2 mps 700 mmHg 47%
    05:00 +9°C° 0 mm 2 mps 700 mmHg 48%
    06:00 +10°C° 0 mm 2 mps 699 mmHg 47%
    07:00 +10°C° 0 mm 2 mps 699 mmHg 47%
    08:00 +12°C° 0 mm 2 mps 699 mmHg 46%
    09:00 +14°C° 0 mm 2 mps 699 mmHg 41%
    10:00 +16°C° 0 mm 2 mps 700 mmHg 36%
    11:00 +18°C° 0 mm 2 mps 700 mmHg 31%
    12:00 +18°C° 0 mm 2 mps 699 mmHg 31%
    13:00 +18°C° 0 mm 3 mps 699 mmHg 32%
    14:00 +19°C° 0 mm 3 mps 699 mmHg 32%
    15:00 +17°C° 0 mm 3 mps 698 mmHg 36%
    16:00 +15°C° 0 mm 2 mps 698 mmHg 41%
    17:00 +14°C° 0 mm 2 mps 698 mmHg 46%
    18:00 +13°C° 0 mm 2 mps 698 mmHg 47%
    19:00 +12°C° 0 mm 2 mps 698 mmHg 49%
    20:00 +12°C° 0 mm 2 mps 698 mmHg 51%
    21:00 +12°C° 0 mm 2 mps 698 mmHg 51%
    22:00 +11°C° 0 mm 1 mps 698 mmHg 52%
    23:00 +11°C° 0 mm 1 mps 698 mmHg 53%

    Tomorrow, 20 November, Monday

    Time Temperature Precipitation Wind Pressure Humidity
    00:00 +10°C° 0 mm 2 mps 698 mmHg 55%
    01:00 +10°C° 0 mm 2 mps 698 mmHg 56%
    02:00 +9°C° 0 mm 2 mps 698 mmHg 58%
    03:00 +9°C° 0 mm 2 mps 698 mmHg 59%
    04:00 +9°C° 0 mm 2 mps 697 mmHg 61%
    05:00 +8°C° 0 mm 3 mps 697 mmHg 63%
    06:00 +9°C° 0 mm 3 mps 697 mmHg 64%
    07:00 +9°C° 0 mm 3 mps 697 mmHg 65%
    08:00 +10°C° 0 mm 3 mps 697 mmHg 66%
    09:00 +11°C° 0 mm 4 mps 697 mmHg 62%
    10:00 +12°C° 0 mm 4 mps 697 mmHg 58%
    11:00 +14°C° 0 mm 5 mps 697 mmHg 54%
    12:00 +14°C° 0.1 mm 5 mps 697 mmHg 55%
    13:00 +13°C° 0.1 mm 5 mps 697 mmHg 56%
    14:00 +13°C° 0.1 mm 5 mps 696 mmHg 57%
    15:00 +12°C° 0.3 mm 4 mps 696 mmHg 63%
    16:00 +11°C° 0.3 mm 3 mps 696 mmHg 69%
    17:00 +10°C° 0.3 mm 2 mps 695 mmHg 74%
    18:00 +10°C° 0.2 mm 2 mps 695 mmHg 77%
    19:00 +9°C° 0.2 mm 2 mps 695 mmHg 79%
    20:00 +9°C° 0.2 mm 2 mps 695 mmHg 81%
    21:00 +9°C° 0.2 mm 2 mps 695 mmHg 82%
    22:00 +9°C° 0.2 mm 2 mps 695 mmHg 84%
    23:00 +8°C° 0.2 mm 2 mps 695 mmHg 85%

    Day after tomorrow, 21 November, Tuesday

    Time Temperature Precipitation Wind Pressure Humidity
    00:00 +8°C° 0.5 mm 2 mps 695 mmHg 85%
    01:00 +8°C° 0.5 mm 3 mps 695 mmHg 86%
    02:00 +7°C° 0.5 mm 4 mps 695 mmHg 87%
    03:00 +6°C° 0.5 mm 5 mps 696 mmHg 86%
    04:00 +5°C° 0.5 mm 5 mps 696 mmHg 85%
    05:00 +4°C° 0.5 mm 6 mps 697 mmHg 85%
    06:00 +4°C° 0.2 mm 6 mps 697 mmHg 83%
    07:00 +3°C° 0.2 mm 6 mps 698 mmHg 81%
    08:00 +3°C° 0.2 mm 6 mps 699 mmHg 79%
    09:00 +3°C° 0.1 mm 6 mps 699 mmHg 77%
    10:00 +3°C° 0.1 mm 6 mps 699 mmHg 74%
    11:00 +3°C° 0.1 mm 7 mps 700 mmHg 72%
    12:00 +3°C° 0.1 mm 7 mps 700 mmHg 72%
    13:00 +3°C° 0.1 mm 7 mps 700 mmHg 73%
    14:00 +3°C° 0.1 mm 7 mps 701 mmHg 74%
    15:00 +2°C° 0.1 mm 6 mps 701 mmHg 74%
    16:00 +2°C° 0.1 mm 5 mps 702 mmHg 75%
    17:00 +1°C° 0.1 mm 4 mps 702 mmHg 76%
    18:00 +2°C° 0 mm 3 mps 702 mmHg 77%
    19:00 +2°C° 0 mm 3 mps 702 mmHg 78%
    20:00 +1°C° 0 mm 3 mps 702 mmHg 80%
    21:00 +1°C° 0 mm 3 mps 703 mmHg 80%
    22:00 0°C° 0 mm 3 mps 703 mmHg 81%
    23:00 0°C° 0 mm 3 mps 703 mmHg 81%

    22 November, Wednesday

    Time Temperature Precipitation Wind Pressure Humidity
    00:00 0°C° 0 mm 3 mps 703 mmHg 80%
    01:00 0°C° 0 mm 3 mps 703 mmHg 79%
    02:00 0°C° 0 mm 3 mps 703 mmHg 78%
    03:00 0°C° 0 mm 3 mps 703 mmHg 77%
    04:00 0°C° 0 mm 3 mps 703 mmHg 77%
    05:00 0°C° 0 mm 3 mps 703 mmHg 76%
    06:00 +1°C° 0 mm 3 mps 703 mmHg 74%
    07:00 +1°C° 0 mm 3 mps 703 mmHg 71%
    08:00 +2°C° 0 mm 3 mps 704 mmHg 69%
    09:00 +3°C° 0 mm 4 mps 704 mmHg 66%
    10:00 +4°C° 0 mm 4 mps 704 mmHg 64%
    11:00 +5°C° 0 mm 4 mps 704 mmHg 61%
    12:00 +6°C° 0.1 mm 4 mps 704 mmHg 62%
    13:00 +6°C° 0.1 mm 4 mps 703 mmHg 64%
    14:00 +6°C° 0.1 mm 4 mps 703 mmHg 65%
    15:00 +6°C° 0.2 mm 4 mps 703 mmHg 69%
    16:00 +5°C° 0.2 mm 4 mps 703 mmHg 73%
    17:00 +4°C° 0.2 mm 4 mps 703 mmHg 78%
    18:00 +4°C° 0.6 mm 4 mps 704 mmHg 78%
    19:00 +3°C° 0.6 mm 5 mps 704 mmHg 79%
    20:00 +3°C° 0.6 mm 5 mps 704 mmHg 80%
    21:00 +4°C° 0.5 mm 4 mps 704 mmHg 82%
    22:00 +4°C° 0.5 mm 4 mps 705 mmHg 84%
    23:00 +4°C° 0.5 mm 4 mps 705 mmHg 86%

    23 November, Thursday

    Time Temperature Precipitation Wind Pressure Humidity
    00:00 +4°C° 0.2 mm 3 mps 705 mmHg 87%
    01:00 +4°C° 0.2 mm 3 mps 705 mmHg 88%
    02:00 +4°C° 0.2 mm 3 mps 706 mmHg 88%
    03:00 +5°C° 0.1 mm 2 mps 706 mmHg 88%
    04:00 +5°C° 0.1 mm 2 mps 706 mmHg 88%
    05:00 +5°C° 0.1 mm 2 mps 707 mmHg 88%
    06:00 +5°C° 0.1 mm 2 mps 707 mmHg 88%
    07:00 +6°C° 0.1 mm 1 mps 707 mmHg 87%
    08:00 +6°C° 0.1 mm 1 mps 708 mmHg 86%
    09:00 +7°C° 0.1 mm 1 mps 708 mmHg 83%
    10:00 +7°C° 0.1 mm 1 mps 708 mmHg 80%
    11:00 +8°C° 0.1 mm 1 mps 709 mmHg 77%
    12:00 +8°C° 0.2 mm 1 mps 709 mmHg 77%
    13:00 +8°C° 0.2 mm 1 mps 709 mmHg 76%
    14:00 +7°C° 0.2 mm 2 mps 708 mmHg 76%
    15:00 +7°C° 0 mm 1 mps 709 mmHg 79%
    16:00 +7°C° 0 mm 1 mps 709 mmHg 82%
    17:00 +6°C° 0 mm 1 mps 709 mmHg 85%
    18:00 +6°C° 0 mm 1 mps 709 mmHg 85%
    19:00 +5°C° 0 mm 1 mps 709 mmHg 86%
    20:00 +5°C° 0 mm 1 mps 710 mmHg 87%
    21:00 +5°C° 0 mm 1 mps 710 mmHg 87%
    22:00 +4°C° 0 mm 1 mps 710 mmHg 87%
    23:00 +4°C° 0 mm 1 mps 710 mmHg 88%

    24 November, Friday

    Time Temperature Precipitation Wind Pressure Humidity
    00:00 +4°C° 0 mm 1 mps 710 mmHg 88%
    01:00 +4°C° 0 mm 1 mps 710 mmHg 88%
    02:00 +3°C° 0 mm 1 mps 710 mmHg 88%
    03:00 +3°C° 0 mm 1 mps 710 mmHg 88%
    04:00 +3°C° 0 mm 1 mps 710 mmHg 87%
    05:00 +3°C° 0 mm 1 mps 710 mmHg 87%
    06:00 +4°C° 0 mm 1 mps 710 mmHg 84%
    07:00 +4°C° 0 mm 1 mps 711 mmHg 82%
    08:00 +5°C° 0 mm 1 mps 711 mmHg 79%
    09:00 +6°C° 0 mm 1 mps 711 mmHg 75%
    10:00 +8°C° 0 mm 1 mps 711 mmHg 70%
    11:00 +9°C° 0 mm 1 mps 711 mmHg 66%
    12:00 +10°C° 0 mm 1 mps 711 mmHg 64%
    13:00 +10°C° 0 mm 1 mps 711 mmHg 63%
    14:00 +10°C° 0 mm 1 mps 710 mmHg 62%
    15:00 +9°C° 0 mm 1 mps 710 mmHg 67%
    16:00 +8°C° 0 mm 1 mps 710 mmHg 72%
    17:00 +6°C° 0 mm 1 mps 710 mmHg 77%
    18:00 +6°C° 0 mm 1 mps 710 mmHg 78%
    19:00 +5°C° 0 mm 1 mps 710 mmHg 80%
    20:00 +5°C° 0 mm 1 mps 711 mmHg 81%
    21:00 +5°C° 0 mm 1 mps 711 mmHg 81%
    22:00 +5°C° 0 mm 1 mps 711 mmHg 82%
    23:00 +5°C° 0 mm 1 mps 711 mmHg 82%
    Show more